Location: Il Ritiro
(43.4167°N, 13.1333°E)
Time: 01:34:21
(UTC+00:00)

NOSS 3-3 (A) - Pass Details

Date: 05 July 2020
Orbit: 825 x 1387 km, 63.4° (Epoch: 07 August)

Event Time Altitude Azimuth Distance (km) Brightness Sun altitude
Rises 20:25:24 0° 201° (SSW) 3,379 6.5 -13.6°
Reaches altitude 10° 20:27:47 10° 197° (SSW) 2,480 5.8 -13.9°
Maximum altitude 20:33:21 58° 119° (ESE) 1,061 3.9 -14.5°
Drops below altitude 10° 20:39:37 10° 43° (NE) 2,778 6.5 -15.2°
Sets 20:42:25 0° 40° (NE) 3,818 7.3 -15.5°
